Regional Weather Roundup
Issued by NWS

Home | Current Version | Previous Version | Graphics & Text | Print | Product List | Glossary On
Versions: 1 2 3 4 5 6 7 8 9 10 11 12 13 14 15 16 17 18 19 20 21 22 23 24 25 26 27 28 29 30 31 32 33 34 35 36 37 38 39 40 41 42 43 44 45 46 47 48 49 50
000
ASUS43 KLOT 290400
RWRIL

ILLINOIS REGIONAL WEATHER ROUNDUP
NATIONAL WEATHER SERVICE CHICAGO/ROMEOVILLE IL
1000 PM CST FRI NOV 28 2014

NOTE: "FAIR" INDICATES FEW OR NO CLOUDS BELOW 12,000 FEET WITH NO
SIGNIFICANT WEATHER AND/OR OBSTRUCTIONS TO VISIBILITY.

* THESE STATIONS ARE NOT UNDER NWS QUALITY CONTROL. THEY ALSO MAY NOT
  REPORT WEATHER SUCH AS PRECIPITATION OR FOG.

ILZ001-002-007-009-015-016-024-290500-
NORTHWEST ILLINOIS

CITY           SKY/WX    TMP DP  RH WIND       PRES   REMARKS
MOLINE         CLEAR     29  26  89 E8        29.82F WCI  21
STERLING*      PTCLDY    30  25  80 SE5       29.85F WCI  25
$$

ILZ003-004-008-010-011-017-018-290500-
NORTH CENTRAL ILLINOIS

CITY           SKY/WX    TMP DP  RH WIND       PRES   REMARKS
ROCKFORD       CLOUDY    33  29  85 SE9       29.89F WCI  25
$$

ILZ005-006-012>014-019>023-290500-
NORTHEAST ILLINOIS

CITY           SKY/WX    TMP DP  RH WIND       PRES   REMARKS
CHICAGO-OHARE  CLOUDY    33  29  85 S8        29.91F WCI  26
CHICAGO-MIDWAY CLOUDY    36  28  73 S10       29.93F WCI  28
AURORA         CLOUDY    34  28  79 S10       29.90F HAZE    WCI  26
WAUKEGAN       CLOUDY    32  27  81 S8        29.90F WCI  25
DUPAGE AIRPORT CLOUDY    34  30  85 S8        29.91F WCI  27
WHEELING       CLOUDY    34  29  82 S8        29.93F WCI  27
NORTHERLY ISL    N/A     35  27  73 S8          N/A  WCI  29
$$

LMZ740>746-290500-
SOUTHERN LAKE MICHIGAN

STATION/POSITION SKY/WX   TEMP    WIND        PRES    VSBY  WAVE
                          AIR SEA DIR/SP/G                  HT/PER
                          (F)     (DEG/KT/KT) (MB)    (MI)  (FT/S)
SOUTHERN BUOY              36 42  180/ 21/ 25 1015.0R         6/ 6
WAUKEGAN HARBOR            34     180/ 14/ 17   N/A
HARRISON CRIB              34     180/ 15/ 18   N/A
BURNHAM HARBOR             35     190/  6/ 13   N/A
CALUMET HARBOR             34     170/  7/ 11 1012.8F
MICHIGAN CITY              32     140/ 13/ 19   N/A
$$

ILZ025>027-034>036-040-047-049-050-058-095>099-290500-
WEST-CENTRAL ILLINOIS

CITY           SKY/WX    TMP DP  RH WIND       PRES   REMARKS
QUINCY         MOCLDY    44  33  65 S13       29.80F
$$

ILZ028>032-037-038-041>044-048-051>054-059>061-290500-
CENTRAL ILLINOIS

CITY           SKY/WX    TMP DP  RH WIND       PRES   REMARKS
DECATUR        CLEAR     37  30  75 S13       29.92S WCI  29
PEORIA         CLEAR     37  30  75 S13       29.86F WCI  29
SPRINGFIELD    CLEAR     39  31  72 S16       29.89S WCI  30
TAYLORVILLE    NOT AVBL
$$

ILZ033-039-045-046-055>057-062-063-290500-
EAST-CENTRAL ILLINOIS

CITY           SKY/WX    TMP DP  RH WIND       PRES   REMARKS
CHAMPAIGN      MOCLDY    35  30  82 S13       29.94F WCI  26
MATTOON        PTCLDY    35  28  75 S12       29.94F WCI  27
$$

ILZ079-100>102-290500-
SOUTHWEST ILLINOIS

CITY           SKY/WX    TMP DP  RH WIND       PRES   REMARKS
ALTON          PTCLDY    41  32  70 S9        29.92F
BELLEVILLE     PTCLDY    41  35  79 S12       29.93S
CAHOKIA*       MOCLDY    41  34  76 S7        29.92S
$$

ILZ064>066-069>071-074>076-080>082-084>086-088>090-092>094-290500-
SOUTH-CENTRAL ILLINOIS

CITY           SKY/WX    TMP DP  RH WIND       PRES   REMARKS
CARBONDALE     CLEAR     45  28  51 S22G29    29.99F
MT. VERNON     CLEAR     39  27  60 S10       29.98F WCI  32
$$

ILZ067-068-072-073-078-083-087-091-290500-
SOUTHEAST ILLINOIS

CITY           SKY/WX    TMP DP  RH WIND       PRES   REMARKS
LAWRENCEVILLE  CLEAR     34  28  79 S8        30.01F WCI  27
$$

ABBREVIATIONS USED IN REMARKS
   TC - TEMPERATURE IN CELSIUS
  WCI - WIND CHILL INDEX
   HX - HEAT INDEX
  VSB - VISIBILITY
$$



USA.gov is the U.S. government's official web portal to all federal, state and local government web resources and services.